EDT,Max TemperatureF,Mean TemperatureF,Min TemperatureF,Max Dew PointF,MeanDew PointF,Min DewpointF,Max Humidity, Mean Humidity, Min Humidity, Max Sea Level PressureIn, Mean Sea Level PressureIn, Min Sea Level PressureIn, Max VisibilityMiles, Mean VisibilityMiles, Min VisibilityMiles, Max Wind SpeedMPH, Mean Wind SpeedMPH, Max Gust SpeedMPH,PrecipitationIn, CloudCover, Events, WindDirDegrees
2013-8-1,79,67,55,66,60,55,100,77,54,30.06,29.96,29.86,10,4,0,15,3,21,0.32,6,Fog-Rain,186
2013-8-2,80,69,58,63,59,50,100,70,39,29.88,29.83,29.80,10,10,6,17,4,24,T,4,Rain,267
2013-8-3,79,67,54,59,55,51,100,70,39,29.87,29.84,29.79,10,9,2,20,4,28,0.02,4,Rain,275
2013-8-4,74,63,51,56,53,48,100,72,44,29.95,29.86,29.83,10,10,10,15,4,22,0.01,2,Rain-Thunderstorm,298
2013-8-5,72,60,48,51,44,35,100,64,27,30.09,30.01,29.95,10,10,10,18,6,26,0.00,0,,307
2013-8-6,77,61,44,54,48,43,100,69,38,30.16,30.13,30.09,10,10,4,12,2,18,0.00,1,,145
2013-8-7,79,66,52,60,55,51,100,70,39,30.19,30.14,30.07,10,10,10,14,4,20,T,5,,168
2013-8-8,83,74,65,70,66,60,93,78,62,30.06,30.02,29.99,10,10,10,12,4,16,T,7,,154
2013-8-9,77,72,66,72,69,66,100,91,82,29.99,29.88,29.76,10,9,4,12,2,16,0.16,7,Rain-Thunderstorm,149
2013-8-10,78,65,51,67,57,43,100,64,28,30.06,29.90,29.82,10,7,0,17,5,25,0.00,2,Fog,300
2013-8-11,78,62,46,56,49,46,100,68,36,30.12,30.08,30.02,10,7,0,16,3,21,0.00,2,Fog,267
2013-8-12,80,66,52,61,54,51,100,70,39,30.05,30.00,29.93,10,10,9,13,2,17,0.00,2,,275
2013-8-13,69,63,56,66,62,55,100,92,84,29.91,29.78,29.70,10,7,1,6,0,8,0.96,7,Rain,205
2013-8-14,70,60,50,63,53,47,100,74,47,30.00,29.79,29.70,10,8,1,23,6,36,0.01,3,Rain,294
2013-8-15,74,59,44,53,47,45,100,69,38,30.09,30.06,30.00,10,7,0,15,4,22,0.00,3,Fog,263
2013-8-16,76,61,46,58,52,46,100,71,41,30.22,30.17,30.14,10,9,1,12,1,16,0.00,3,,240
2013-8-17,80,65,50,58,53,48,100,68,35,30.32,30.27,30.23,10,7,0,10,2,14,0.00,3,Fog,356
2013-8-18,76,64,52,63,55,51,100,73,46,30.31,30.25,30.11,10,7,0,9,1,10,0.00,4,Fog,168
2013-8-19,81,67,53,63,57,53,100,70,39,30.11,30.06,29.97,10,5,0,14,2,21,0.00,4,Fog,279
2013-8-20,84,70,56,64,58,55,100,70,40,30.13,30.08,30.03,10,6,0,13,2,17,0.00,3,Fog,333
2013-8-21,86,72,57,65,60,57,100,69,37,30.19,30.12,30.05,10,5,0,12,2,15,0.00,2,Fog,268
2013-8-22,87,72,56,67,61,55,100,68,36,30.06,29.95,29.83,10,6,0,17,3,24,0.04,2,Fog-Rain-Thunderstorm,235
2013-8-23,75,63,51,63,54,45,93,64,35,30.19,30.02,29.88,10,10,7,13,4,17,0.00,2,,339
2013-8-24,77,61,44,54,47,43,100,68,36,30.36,30.31,30.21,10,7,0,8,1,10,0.00,1,Fog,67
2013-8-25,81,64,46,58,51,46,100,65,30,30.42,30.33,30.18,10,6,0,13,2,21,0.05,2,Fog-Rain,207
2013-8-26,76,68,60,66,63,59,100,84,68,30.19,30.01,29.90,10,9,2,10,2,14,0.11,8,Rain,208
2013-8-27,85,75,64,69,66,64,100,78,55,29.92,29.90,29.86,10,7,0,12,1,15,0.01,5,Fog,313
2013-8-28,85,74,62,70,65,62,100,74,48,30.03,29.92,29.86,10,5,0,22,2,30,2.48,5,Fog-Rain-Thunderstorm,83
2013-8-29,72,67,62,64,62,60,100,84,68,30.10,30.04,29.98,10,8,0,8,1,10,T,7,Fog-Rain,115
2013-8-30,85,74,62,67,63,60,100,72,44,30.04,29.92,29.82,10,10,9,12,3,15,0.00,4,,178
2013-8-31,78,72,66,73,69,65,100,91,82,29.84,29.81,29.76,10,7,4,9,2,13,0.10,6,Rain,157